FW1564 Weather Reports


Display with metric or nautical units.
time (UTC)temp
F
wind
direction
speed
MPH
gust
MPH
rain 1hr
in
rain 24hr
in
rain mn
in
humidity
%
barometer
mb
20260904202759 67 25 0.0 1.0 0.00 0.00 0.00 89 1021.0
20260904201758 66 12 0.0 2.0 0.00 0.00 0.00 89 1020.8
20260904200759 66 345 0.0 2.0 0.00 0.00 0.00 89 1020.7
20260904195757 67 80 0.0 2.0 0.00 0.00 0.00 90 1020.5
20260904194758 67 339 0.0 1.0 0.00 0.00 0.00 90 1020.3
20260904193758 67 37 0.0 1.0 0.00 0.00 0.00 89 1020.0
20260904192757 68 143 0.0 1.0 0.00 0.00 0.00 89 1020.0
20260904191758 68 111 1.0 2.0 0.00 0.00 0.00 89 1020.0
20260904190758 68 128 1.0 4.0 0.00 0.00 0.00 88 1020.1
20260904185758 68 141 2.0 3.0 0.00 0.00 0.00 88 1019.9
20260904184758 69 164 1.0 3.0 0.00 0.00 0.00 87 1020.1
20260904183759 69 195 0.0 6.0 0.00 0.00 0.00 86 1019.7
20260904182758 69 133 2.0 3.0 0.00 0.00 0.00 86 1019.8
20260904181758 69 180 1.0 7.0 0.00 0.00 0.00 86 1019.9
20260904180758 69 165 3.0 6.0 0.00 0.00 0.00 86 1019.9
20260904180235 70 119 3.0 6.0 0.00 0.00 0.00 85 1019.9
20260904174801 70 119 4.0 6.0 0.00 0.00 0.00 84 1019.9
20260904173758 70 164 3.0 6.0 0.00 0.00 0.00 84 1019.7
20260904172758 71 120 1.0 6.0 0.00 0.00 0.00 83 1019.7
20260904171758 71 121 4.0 6.0 0.00 0.00 0.00 82 1019.8
20260904170758 71 151 2.0 8.0 0.00 0.00 0.00 82 1019.9
20260904170232 72 178 2.0 7.0 0.00 0.00 0.00 80 1019.9
20260904164758 73 157 4.0 8.0 0.00 0.00 0.00 78 1020.0
20260904163758 73 161 4.0 7.0 0.00 0.00 0.00 77 1019.7
20260904162757 73 108 3.0 8.0 0.00 0.00 0.00 79 1020.0
20260904161757 74 109 4.0 8.0 0.00 0.00 0.00 77 1020.0
20260904160758 73 219 3.0 7.0 0.00 0.00 0.00 78 1020.0
20260904155758 72 185 3.0 7.0 0.00 0.00 0.00 81 1020.0
20260904155255 71 105 3.0 7.0 0.00 0.00 0.00 81 1020.4
20260904153758 71 103 2.0 7.0 0.00 0.00 0.00 83 1020.5
20260904152759 71 193 3.0 6.0 0.00 0.00 0.00 82 1020.7
20260904151802 70 183 2.0 8.0 0.00 0.00 0.00 84 1020.9
20260904150758 70 109 4.0 7.0 0.00 0.00 0.00 83 1020.7
20260904150240 70 126 2.0 4.0 0.00 0.00 0.00 83 1021.2
20260904144758 70 180 3.0 6.0 0.00 0.00 0.00 83 1021.0
20260904143758 70 151 2.0 7.0 0.00 0.00 0.00 84 1021.1
20260904142759 70 132 2.0 7.0 0.00 0.00 0.00 83 1021.1
20260904141758 71 121 3.0 7.0 0.00 0.00 0.00 82 1021.2
20260904140758 71 144 3.0 8.0 0.00 0.00 0.00 81 1021.1
20260904140237 71 111 4.0 8.0 0.00 0.00 0.00 80 1021.1
20260904134758 72 212 3.0 8.0 0.00 0.00 0.00 79 1021.1
20260904133758 73 163 3.0 8.0 0.00 0.00 0.00 79 1021.0
20260904132759 73 122 4.0 7.0 0.00 0.00 0.00 77 1021.1
20260904131758 73 155 5.0 8.0 0.00 0.00 0.00 77 1021.0
20260904130758 73 111 5.0 10.0 0.00 0.00 0.00 78 1021.0
20260904125758 73 104 5.0 9.0 0.00 0.00 0.00 77 1021.1
20260904124759 75 167 6.0 11.0 0.00 0.00 0.00 73 1021.3
20260904123758 75 163 4.0 10.0 0.00 0.00 0.00 75 1021.3
20260904122758 75 122 3.0 10.0 0.00 0.00 0.00 73 1021.0
20260904121757 75 251 3.0 8.0 0.00 0.00 0.00 72 1021.0
20260904121236 75 108 3.0 6.0 0.00 0.00 0.00 73 1021.3
20260904115759 73 169 2.0 8.0 0.00 0.00 0.00 76 1021.7
20260904115720 74 114 4.0 7.0 0.00 0.00 0.00 74 1021.7
20260904113758 75 120 5.0 10.0 0.00 0.00 0.00 72 1021.6
20260904113238 74 135 5.0 9.0 0.00 0.00 0.00 74 1021.7
20260904111758 75 171 4.0 9.0 0.00 0.00 0.00 72 1021.5
20260904111238 74 119 5.0 8.0 0.00 0.00 0.00 72 1021.6
20260904105758 73 153 3.0 8.0 0.00 0.00 0.00 75 1021.6
20260904104758 73 136 4.0 9.0 0.00 0.00 0.00 75 1021.6
20260904103757 74 99 2.0 10.0 0.00 0.00 0.00 75 1021.3
20260904103716 72 250 0.0 4.0 0.00 0.00 0.00 76 1021.6
20260904101758 71 65 1.0 6.0 0.00 0.00 0.00 78 1021.6
20260904100758 71 122 3.0 6.0 0.00 0.00 0.00 77 1021.6
20260904095757 70 124 2.0 4.0 0.00 0.00 0.00 79 1021.3
20260904095238 70 168 1.0 6.0 0.00 0.00 0.00 80 1021.5
20260904093759 72 138 4.0 8.0 0.00 0.00 0.00 76 1021.5
20260904092758 72 221 0.0 6.0 0.00 0.00 0.00 76 1021.2
20260904091758 74 123 1.0 3.0 0.00 0.00 0.00 73 1021.3
20260904090757 73 100 2.0 2.0 0.00 0.00 0.00 74 1021.1
20260904085758 70 76 0.0 2.0 0.00 0.00 0.00 77 1021.3
20260904084758 69 33 0.0 3.0 0.00 0.00 0.00 75 1021.2
20260904083758 67 42 2.0 2.0 0.00 0.00 0.00 74 1021.2
20260904082758 67 324 0.0 2.0 0.00 0.00 0.00 78 1021.2
20260904081757 65 340 3.0 4.0 0.00 0.00 0.00 76 1021.5
20260904080758 63 339 1.0 4.0 0.00 0.00 0.00 76 1021.2
20260904075758 63 346 3.0 4.0 0.00 0.00 0.00 76 1021.1
20260904074758 62 331 4.0 4.0 0.00 0.00 0.00 76 1021.0
20260904073758 63 344 3.0 4.0 0.00 0.00 0.00 79 1021.1
20260904073235 62 317 3.0 4.0 0.00 0.00 0.00 82 1020.9
20260904071758 62 2 3.0 4.0 0.00 0.00 0.00 83 1021.1
20260904070758 63 353 2.0 6.0 0.00 0.00 0.00 86 1020.8
20260904070243 64 344 3.0 4.0 0.00 0.00 0.00 85 1020.8
20260904065233 64 353 3.0 4.0 0.00 0.00 0.00 83 1020.9
20260904063757 62 343 4.0 4.0 0.00 0.00 0.00 79 1020.8
20260904062758 62 329 3.0 4.0 0.00 0.00 0.00 76 1020.5
20260904061757 62 342 2.0 7.0 0.00 0.00 0.00 78 1020.4
20260904060759 62 339 2.0 4.0 0.00 0.00 0.00 76 1020.4
20260904055758 62 1 4.0 6.0 0.00 0.00 0.00 75 1020.3
20260904054758 63 339 2.0 6.0 0.00 0.00 0.00 81 1020.3
20260904053758 62 342 4.0 6.0 0.00 0.00 0.00 82 1020.1
20260904053236 62 334 3.0 4.0 0.00 0.00 0.00 85 1020.2
20260904051758 63 358 3.0 6.0 0.00 0.00 0.00 87 1020.2
20260904050758 63 318 3.0 4.0 0.00 0.00 0.00 89 1020.0
20260904045758 62 343 3.0 4.0 0.00 0.00 0.00 87 1020.1
20260904045235 62 343 2.0 4.0 0.00 0.00 0.00 85 1020.1
20260904043758 63 343 3.0 4.0 0.00 0.00 0.00 86 1020.2
20260904042758 63 343 2.0 4.0 0.00 0.00 0.00 87 1020.1
20260904041758 63 353 4.0 6.0 0.00 0.00 0.00 88 1019.9
20260904040758 64 340 2.0 4.0 0.00 0.00 0.00 89 1020.0
20260904035758 63 341 4.0 4.0 0.00 0.00 0.00 87 1020.4
20260904034758 63 335 2.0 6.0 0.00 0.00 0.00 85 1020.4
20260904034239 63 340 3.0 4.0 0.00 0.00 0.00 86 1020.3
20260904032758 64 338 3.0 6.0 0.00 0.00 0.00 88 1020.2
20260904031758 64 338 3.0 4.0 0.00 0.00 0.00 89 1020.1
20260904030758 63 353 4.0 6.0 0.00 0.00 0.00 87 1020.3
20260904025758 63 354 3.0 4.0 0.00 0.00 0.00 87 1020.7
20260904024758 64 343 2.0 6.0 0.00 0.00 0.00 86 1020.6
20260904023757 64 340 3.0 4.0 0.00 0.00 0.00 87 1020.6
20260904022758 64 345 3.0 6.0 0.00 0.00 0.00 87 1020.8
20260904021758 65 15 2.0 4.0 0.00 0.00 0.00 87 1020.9
20260904020758 65 5 4.0 6.0 0.00 0.00 0.00 87 1021.0
20260904015758 65 345 3.0 4.0 0.00 0.00 0.00 87 1021.3
20260904014758 65 345 2.0 4.0 0.00 0.00 0.00 87 1021.3
20260904014153 65 350 2.0 4.0 0.00 0.00 0.00 89 1021.8
20260904013828 66 341 1.0 4.0 0.00 0.00 0.00 87 1021.5
20260904011758 65 350 3.0 4.0 0.00 0.00 0.00 88 1021.7
20260904010758 65 344 3.0 3.0 0.00 0.00 0.00 88 1021.3
20260904005758 66 2 1.0 4.0 0.00 0.00 0.00 88 1021.3
20260904004758 66 0 2.0 3.0 0.00 0.00 0.00 88 1021.9
20260904003758 65 343 2.0 3.0 0.00 0.00 0.00 88 1021.9
20260904002758 64 355 3.0 4.0 0.00 0.00 0.00 87 1021.8
20260904001758 64 352 2.0 4.0 0.00 0.00 0.00 85 1022.1
20260904000758 64 340 2.0 6.0 0.00 0.00 0.00 84 1021.9
20260903235758 65 337 3.0 7.0 0.00 0.00 0.00 86 1021.7
20260903234758 65 337 3.0 4.0 0.00 0.00 0.00 87 1021.8
20260903234719 66 340 2.0 3.0 0.00 0.00 0.00 86 1022.0
20260903232758 66 353 2.0 2.0 0.00 0.00 0.00 86 1022.0
20260903231758 65 349 2.0 3.0 0.00 0.00 0.00 86 1021.9
20260903231238 65 329 1.0 4.0 0.00 0.00 0.00 88 1022.0
20260903225758 66 343 3.0 6.0 0.00 0.00 0.00 88 1021.9
20260903224758 66 352 4.0 4.0 0.00 0.00 0.00 88 1022.1
20260903223800 67 340 1.0 3.0 0.00 0.00 0.00 89 1021.7
20260903222800 67 247 1.0 2.0 0.00 0.00 0.00 89 1021.9
20260903221804 67 343 2.0 3.0 0.00 0.00 0.00 89 1021.9
20260903220758 67 343 1.0 3.0 0.00 0.00 0.00 89 1022.0
20260903220246 67 2 2.0 3.0 0.00 0.00 0.00 89 1021.9
20260903214758 67 28 1.0 2.0 0.00 0.00 0.00 89 1022.0
20260903214722 67 331 0.0 2.0 0.00 0.00 0.00 89 1022.0
20260903213707 66 10 0.0 2.0 0.00 0.00 0.00 89 1022.1
20260903211758 66 340 1.0 2.0 0.00 0.00 0.00 89 1022.0
20260903211240 67 338 2.0 2.0 0.00 0.00 0.00 89 1021.6
20260903205758 67 4 0.0 1.0 0.00 0.00 0.00 89 1021.5
20260903205238 67 322 0.0 2.0 0.00 0.00 0.00 89 1021.2
20260903203758 67 335 2.0 2.0 0.00 0.00 0.00 89 1021.3